Huron, SD

10:07 AM CDT on April 23, 2017 (GMT -0500)
Huron Regional

Weather History for KHON - October, 2012

Change the Weather History Date:

Monday, October 15, 2012

  Actual Average Record
Temperature  
Mean Temperature 56 °F 48 °F  
Max Temperature 75 °F 61 °F 92 °F (1958)
Min Temperature 36 °F 36 °F 15 °F (1893)
Degree Days  
Heating Degree Days 9 17  
Month to date heating degree days 266 208  
Since 1 July heating degree days 440 404  
Cooling Degree Days 0 0  
Month to date cooling degree days 0 0  
Year to date cooling degree days 1083 738  
Growing Degree Days 6 (Base 50)    
Moisture  
Dew Point 35 °F    
Average Humidity 47    
Maximum Humidity 70    
Minimum Humidity 23    
Precipitation  
Precipitation 0.00 in 0.06 in 1.35 in (1957)
Month to date precipitation T 0.96  
Year to date precipitation 17.27 20.68  
Snow  
Snow 0.00 in 0.10 in 0.40 in (1992)
Month to date snowfall 0.0 0.3  
Since 1 July snowfall 0.0 0.3  
Since 1 September snowfall 0.0 0.3  
Snow Depth 0.00 in    
Sea Level Pressure  
Sea Level Pressure 29.81 in    
Wind  
Wind Speed 9 mph (SSE)    
Max Wind Speed 16 mph    
Max Gust Speed 21 mph    
Visibility 10 miles    
Events Snow    
T = Trace of Precipitation, MM = Missing Value Source: NWS Daily Summary

Daily Weather History Graph

Daily Weather History Graph

Search for Another Location

Airport or City:

Trip Planner

Search our weather history database for the weather conditions in past years. The results will help you decide how hot, cold, wet, or windy it might be!

Date:

Astronomy

Oct. 15, 2012 Rise Set
Actual Time 7:48 AM CDT 6:47 PM CDT
Civil Twilight 7:19 AM CDT 7:17 PM CDT
Nautical Twilight 6:45 AM CDT 7:50 PM CDT
Astronomical Twilight 6:11 AM CDT 8:24 PM CDT
Moon 8:03 AM CDT (10/15) 6:45 PM CDT (10/15)
Length of Visible Light 11h 57m
Length of Day
10h 59m
New Moon, 0% of the Moon is Illuminated
Oct 15
New Moon
Oct 21
First Quarter
Oct 29
Full
Nov 6
Last Quarter
Nov 13
New

Hourly Weather History & Observations

Time (CDT) Temp. Windchill Dew Point Humidity Pressure Visibility Wind Dir Wind Speed Gust Speed Precip Events Conditions
12:55 AM 37.9 °F - 32.0 °F 79% 29.96 in 9.0 mi Calm Calm - 0.00 in Snow Light Snow
1:55 AM 39.0 °F 36.8 °F 32.0 °F 76% 29.96 in 9.0 mi SE 3.5 mph - 0.00 in   Clear
2:55 AM 37.9 °F 34.4 °F 30.9 °F 76% 29.95 in 9.0 mi SE 4.6 mph - 0.00 in Snow Light Snow
3:55 AM 39.0 °F 36.8 °F 32.0 °F 76% 29.94 in 10.0 mi South 3.5 mph - 0.00 in   Clear
4:55 AM 41.0 °F 37.1 °F 32.0 °F 70% 29.93 in 10.0 mi SSE 5.8 mph - N/A   Clear
5:55 AM 37.0 °F 33.3 °F 30.9 °F 79% 29.91 in 9.0 mi SE 4.6 mph - 0.00 in Snow Light Snow
6:55 AM 39.9 °F 35.8 °F 32.0 °F 73% 29.92 in 10.0 mi South 5.8 mph - N/A   Clear
7:55 AM 42.1 °F 37.1 °F 32.0 °F 67% 29.91 in 10.0 mi SSE 8.1 mph - N/A   Clear
8:55 AM 44.1 °F 37.7 °F 33.1 °F 65% 29.90 in 10.0 mi SSE 12.7 mph - N/A   Mostly Cloudy
9:55 AM 48.9 °F - 35.1 °F 59% 29.90 in 10.0 mi South 11.5 mph - N/A   Partly Cloudy
10:55 AM 52.0 °F - 35.1 °F 53% 29.89 in 10.0 mi South 10.4 mph - N/A   Clear
11:55 AM 57.9 °F - 36.0 °F 44% 29.86 in 10.0 mi South 13.8 mph 18.4 mph N/A   Clear
12:55 PM 64.9 °F - 36.0 °F 34% 29.83 in 7.0 mi South 12.7 mph - N/A   Clear
1:55 PM 70.0 °F - 36.0 °F 29% 29.78 in 10.0 mi SSE 12.7 mph - N/A   Clear
2:55 PM 73.0 °F - 36.0 °F 26% 29.73 in 10.0 mi SSE 11.5 mph 19.6 mph N/A   Clear
3:55 PM 73.9 °F - 36.0 °F 25% 29.71 in 10.0 mi South 13.8 mph 20.7 mph N/A   Clear
4:55 PM 75.0 °F - 36.0 °F 24% 29.69 in 10.0 mi South 11.5 mph 19.6 mph N/A   Clear
5:55 PM 72.0 °F - 36.0 °F 27% 29.66 in 10.0 mi SSE 11.5 mph - N/A   Clear
6:55 PM 69.1 °F - 36.0 °F 30% 29.65 in 10.0 mi SSE 9.2 mph - N/A   Clear
7:55 PM 66.9 °F - 36.0 °F 32% 29.64 in 10.0 mi SSE 11.5 mph - N/A   Clear
8:55 PM 63.0 °F - 36.0 °F 37% 29.64 in 10.0 mi SSE 10.4 mph 18.4 mph N/A   Clear
9:55 PM 64.0 °F - 37.0 °F 37% 29.63 in 10.0 mi South 8.1 mph - N/A   Clear
10:55 PM 60.1 °F - 37.0 °F 42% 29.62 in 10.0 mi SSE 4.6 mph - N/A   Clear
11:55 PM 57.0 °F - 37.0 °F 47% 29.62 in 10.0 mi NNW 5.8 mph - N/A   Clear